| time (UTC) | temp F | wind direction | speed knots | gust knots | rain 1hr in | rain 24hr in | rain mn in | humidity % | barometer mb |
| 20260507153000 | 48 | 227 | 3.5 | 7.0 | 0.00 | 0.14 | 0.00 | 66 | 1013.3 |
| 20260507151500 | 49 | 348 | 2.6 | 4.3 | 0.00 | 0.14 | 0.00 | 68 | 1013.4 |
| 20260507150002 | 48 | 350 | 2.6 | 5.2 | 0.00 | 0.14 | 0.00 | 70 | 1013.4 |
| 20260507144458 | 47 | 213 | 1.7 | 5.2 | 0.00 | 0.14 | 0.00 | 68 | 1013.5 |
| 20260507141459 | 46 | 77 | 1.7 | 4.3 | 0.00 | 0.14 | 0.00 | 68 | 1013.4 |
| 20260507140001 | 45 | 308 | 0.9 | 3.5 | 0.00 | 0.14 | 0.00 | 71 | 1013.5 |
| 20260507134459 | 44 | 327 | 0.9 | 4.3 | 0.00 | 0.18 | 0.00 | 75 | 1013.7 |
| 20260507132959 | 43 | 261 | 0.9 | 2.6 | 0.00 | 0.18 | 0.00 | 79 | 1013.9 |
| 20260507131458 | 42 | 223 | 0.0 | 1.7 | 0.00 | 0.18 | 0.00 | 82 | 1014.0 |
| 20260507130001 | 41 | 223 | 0.0 | 1.7 | 0.00 | 0.18 | 0.00 | 82 | 1014.1 |
| 20260507124459 | 41 | 323 | 0.0 | 0.9 | 0.00 | 0.21 | 0.00 | 87 | 1014.0 |
| 20260507122958 | 41 | 323 | 1.7 | 4.3 | 0.00 | 0.21 | 0.00 | 88 | 1014.0 |
| 20260507121459 | 41 | 280 | 0.0 | 1.7 | 0.00 | 0.21 | 0.00 | 97 | 1013.9 |
| 20260507120001 | 41 | 273 | 0.0 | 2.6 | 0.00 | 0.21 | 0.00 | 97 | 1014.1 |
| 20260507114458 | 41 | 183 | 0.0 | 0.9 | 0.00 | 0.26 | 0.00 | 98 | 1013.7 |
| 20260507112958 | 40 | 183 | 0.9 | 1.7 | 0.00 | 0.26 | 0.00 | 98 | 1013.8 |
| 20260507111459 | 40 | 183 | 0.0 | 0.9 | 0.00 | 0.26 | 0.00 | 98 | 1013.3 |
| 20260507110001 | 39 | 183 | 0.0 | 0.0 | 0.00 | 0.26 | 0.00 | 98 | 1013.3 |
| 20260507101458 | 37 | 247 | 0.0 | 0.0 | 0.00 | 0.31 | 0.00 | 97 | 1013.1 |
| 20260507100001 | 37 | 247 | 0.0 | 0.0 | 0.00 | 0.31 | 0.00 | 97 | 1013.1 |
| 20260507094459 | 36 | 247 | 0.0 | 0.0 | 0.00 | 0.36 | 0.00 | 97 | 1013.1 |
| 20260507092959 | 36 | 247 | 0.0 | 0.0 | 0.00 | 0.36 | 0.00 | 96 | 1013.0 |
| 20260507091458 | 36 | 247 | 0.0 | 0.0 | 0.00 | 0.36 | 0.00 | 96 | 1013.2 |
| 20260507090002 | 36 | 247 | 0.0 | 0.0 | 0.00 | 0.36 | 0.00 | 96 | 1013.1 |
| 20260507084458 | 37 | 247 | 0.0 | 0.0 | 0.00 | 0.41 | 0.00 | 96 | 1012.8 |
| 20260507081458 | 37 | 247 | 0.0 | 0.0 | 0.00 | 0.41 | 0.00 | 96 | 1013.3 |
| 20260507080005 | 38 | 247 | 0.0 | 0.0 | 0.00 | 0.41 | 0.00 | 96 | 1013.2 |
| 20260507074458 | 38 | 247 | 0.0 | 0.0 | 0.00 | 0.52 | 0.00 | 95 | 1013.0 |
| 20260507072959 | 39 | 247 | 0.0 | 0.0 | 0.00 | 0.52 | 0.00 | 95 | 1013.3 |
| 20260507071459 | 39 | 247 | 0.9 | 1.7 | 0.00 | 0.52 | 0.00 | 95 | 1013.1 |
| 20260507064458 | 41 | 247 | 0.0 | 0.0 | 0.00 | 0.63 | 0.00 | 95 | 1013.3 |
| 20260507061458 | 42 | 247 | 0.0 | 0.0 | 0.00 | 0.63 | 0.00 | 95 | 1013.4 |
| 20260507060001 | 42 | 247 | 0.0 | 1.7 | 0.00 | 0.63 | 0.00 | 95 | 1013.3 |
| 20260507054457 | 42 | 247 | 0.0 | 0.0 | 0.00 | 0.79 | 0.00 | 95 | 1013.6 |
| 20260507052958 | 42 | 247 | 0.0 | 0.9 | 0.00 | 0.79 | 0.00 | 95 | 1013.7 |
| 20260507051457 | 42 | 247 | 0.0 | 0.9 | 0.00 | 0.79 | 0.00 | 95 | 1013.9 |
| 20260507050000 | 42 | 247 | 0.0 | 0.0 | 0.00 | 0.79 | 0.00 | 95 | 1013.9 |
| 20260507044457 | 42 | 247 | 0.0 | 0.0 | 0.00 | 0.92 | 0.00 | 95 | 1014.0 |
| 20260507042958 | 42 | 247 | 0.0 | 0.9 | 0.00 | 0.92 | 0.00 | 95 | 1014.0 |
| 20260507041457 | 42 | 247 | 0.0 | 0.0 | 0.00 | 0.92 | 0.00 | 95 | 1014.0 |
| 20260507040007 | 42 | 247 | 0.0 | 0.9 | 0.00 | 0.92 | 0.00 | 95 | 1013.9 |
| 20260507034501 | 42 | 247 | 0.0 | 0.9 | 0.00 | 0.98 | 0.92 | 95 | 1013.7 |
| 20260507033002 | 42 | 247 | 0.9 | 1.7 | 0.00 | 0.98 | 0.92 | 95 | 1013.8 |
| 20260507031502 | 43 | 276 | 0.9 | 3.5 | 0.00 | 0.98 | 0.92 | 96 | 1013.9 |
| 20260507030005 | 43 | 248 | 0.9 | 5.2 | 0.00 | 0.98 | 0.92 | 96 | 1013.7 |
| 20260507021501 | 43 | 247 | 1.7 | 4.3 | 0.00 | 0.98 | 0.92 | 96 | 1013.6 |
| 20260507020005 | 43 | 203 | 0.9 | 2.6 | 0.00 | 0.98 | 0.92 | 95 | 1013.8 |
| 20260507014500 | 43 | 234 | 0.9 | 2.6 | 0.00 | 1.03 | 0.92 | 95 | 1013.7 |
| 20260507013000 | 42 | 247 | 0.9 | 4.3 | 0.00 | 1.03 | 0.92 | 95 | 1013.5 |
| 20260507011501 | 42 | 273 | 0.9 | 3.5 | 0.00 | 1.03 | 0.92 | 95 | 1013.8 |
| 20260507010004 | 42 | 246 | 1.7 | 5.2 | 0.00 | 1.03 | 0.92 | 95 | 1013.7 |
| 20260507004501 | 42 | 284 | 1.7 | 6.1 | 0.00 | 1.07 | 0.92 | 95 | 1013.5 |
| 20260507003001 | 43 | 321 | 1.7 | 6.1 | 0.00 | 1.07 | 0.92 | 94 | 1013.2 |
| 20260507000004 | 43 | 273 | 2.6 | 5.2 | 0.05 | 1.07 | 0.92 | 94 | 1012.8 |
| 20260506234500 | 44 | 333 | 2.6 | 4.3 | 0.10 | 1.10 | 0.92 | 93 | 1012.3 |
| 20260506233001 | 44 | 320 | 3.5 | 7.8 | 0.13 | 1.10 | 0.92 | 93 | 1012.4 |
| 20260506231500 | 46 | 263 | 4.3 | 13.0 | 0.10 | 1.07 | 0.89 | 91 | 1012.2 |
| 20260506230003 | 48 | 12 | 0.9 | 1.7 | 0.08 | 1.05 | 0.87 | 93 | 1011.5 |
| 20260506224501 | 49 | 12 | 0.0 | 1.7 | 0.03 | 1.04 | 0.82 | 91 | 1011.1 |
| 20260506223000 | 49 | 117 | 0.9 | 1.7 | 0.00 | 1.01 | 0.79 | 89 | 1010.9 |
| 20260506221501 | 50 | 117 | 0.0 | 0.0 | 0.00 | 1.01 | 0.79 | 86 | 1010.9 |
| 20260506220006 | 50 | 117 | 0.0 | 2.6 | 0.00 | 1.01 | 0.79 | 84 | 1010.7 |
| 20260506214501 | 50 | 117 | 0.9 | 3.5 | 0.00 | 1.07 | 0.79 | 84 | 1010.6 |
| 20260506213000 | 50 | 171 | 1.7 | 2.6 | 0.00 | 1.07 | 0.79 | 83 | 1010.6 |
| 20260506210003 | 50 | 87 | 0.9 | 2.6 | 0.00 | 1.07 | 0.79 | 84 | 1010.8 |
| 20260506203000 | 49 | 99 | 0.9 | 2.6 | 0.00 | 1.07 | 0.79 | 84 | 1011.1 |
| 20260506200003 | 49 | 207 | 0.9 | 3.5 | 0.00 | 1.07 | 0.79 | 83 | 1010.8 |
| 20260506194500 | 49 | 181 | 1.7 | 4.3 | 0.00 | 1.07 | 0.79 | 83 | 1011.0 |
| 20260506193000 | 49 | 274 | 0.9 | 3.5 | 0.00 | 1.07 | 0.79 | 84 | 1010.9 |
| 20260506191500 | 48 | 327 | 0.9 | 2.6 | 0.00 | 1.07 | 0.79 | 85 | 1010.9 |
| 20260506190004 | 48 | 327 | 0.9 | 2.6 | 0.00 | 1.07 | 0.79 | 85 | 1011.1 |
| 20260506184500 | 48 | 308 | 1.7 | 2.6 | 0.00 | 1.07 | 0.79 | 87 | 1011.2 |
| 20260506183000 | 47 | 5 | 0.9 | 2.6 | 0.00 | 1.07 | 0.79 | 88 | 1011.2 |
| 20260506181501 | 47 | 346 | 1.7 | 4.3 | 0.01 | 1.07 | 0.79 | 87 | 1011.1 |
| 20260506180005 | 47 | 21 | 1.7 | 3.5 | 0.01 | 1.07 | 0.79 | 87 | 1011.3 |
| 20260506174500 | 47 | 18 | 1.7 | 3.5 | 0.01 | 1.07 | 0.79 | 89 | 1011.3 |
| 20260506171500 | 47 | 309 | 1.7 | 4.3 | 0.00 | 1.06 | 0.78 | 89 | 1010.6 |
| 20260506164502 | 46 | 55 | 0.9 | 3.5 | 0.00 | 1.06 | 0.78 | 92 | 1010.6 |
| 20260506163000 | 46 | 348 | 0.9 | 3.5 | 0.00 | 1.06 | 0.78 | 93 | 1010.6 |
| 20260506161500 | 45 | 319 | 0.9 | 3.5 | 0.00 | 1.06 | 0.78 | 94 | 1010.6 |
| 20260506160002 | 45 | 9 | 1.7 | 3.5 | 0.00 | 1.06 | 0.78 | 94 | 1010.5 |